This is the latest recevied weather packets stored in our database for station/object DL9BGG-13. If no packets are shown the sender has not sent any weather packets the latest 1 day(s).
| Time | Temp. | Humidity | Pressure | Rain* | Wind** | Luminosity | Snow |
|---|---|---|---|---|---|---|---|
| 1777968182 | 10.56° C | 76% | 1058.1 hPa | 0 mm | 1.34 m/s, 22° | - | - |
| 1777968108 | 10.56° C | 76% | 1058.1 hPa | 0 mm | 2.24 m/s, 45° | - | - |
| 1777968036 | 10.56° C | 76% | 1058.1 hPa | 0 mm | 1.34 m/s, 45° | - | - |
| 1777967970 | 10.56° C | 76% | 1058.1 hPa | 0 mm | 2.68 m/s, 0° | - | - |
| 1777967904 | 10.56° C | 76% | 1058.1 hPa | 0 mm | 1.79 m/s, 22° | - | - |
| 1777967832 | 10.56° C | 76% | 1058 hPa | 0 mm | 0 m/s | - | - |
| 1777967753 | 10.56° C | 76% | 1058 hPa | 0 mm | 2.68 m/s, 22° | - | - |
| 1777967685 | 10.56° C | 76% | 1058 hPa | 0 mm | 0.89 m/s, 90° | - | - |
| 1777967612 | 10.56° C | 76% | 1058 hPa | 0 mm | 2.24 m/s, 112° | - | - |
| 1777967548 | 10.56° C | 76% | 1058.1 hPa | 0 mm | 1.34 m/s, 90° | - | - |
| 1777967474 | 10.56° C | 76% | 1058 hPa | 0 mm | 0 m/s | - | - |
| 1777967385 | 10.56° C | 76% | 1058 hPa | 0 mm | 2.24 m/s, 22° | - | - |
| 1777967320 | 10.56° C | 76% | 1058 hPa | 0 mm | 4.47 m/s, 45° | - | - |
| 1777967255 | 10.56° C | 77% | 1058 hPa | 0 mm | 3.58 m/s, 0° | - | - |
| 1777967189 | 10.56° C | 77% | 1058 hPa | 0 mm | 4.47 m/s, 45° | - | - |
| 1777967123 | 10.56° C | 77% | 1058 hPa | 0 mm | 2.24 m/s, 45° | - | - |
| 1777967049 | 10.56° C | 77% | 1058 hPa | 0 mm | 2.68 m/s, 45° | - | - |
| 1777966981 | 10° C | 76% | 1058 hPa | 0 mm | 1.34 m/s, 22° | - | - |
| 1777966900 | 10° C | 76% | 1058 hPa | 0 mm | 3.58 m/s, 45° | - | - |
| 1777966826 | 10° C | 76% | 1058 hPa | 0 mm | 3.58 m/s, 90° | - | - |
| 1777966759 | 10° C | 77% | 1058 hPa | 0 mm | 4.02 m/s, 45° | - | - |
| 1777966694 | 10° C | 77% | 1058 hPa | 0 mm | 1.79 m/s, 45° | - | - |
| 1777966629 | 10° C | 77% | 1058 hPa | 0 mm | 2.24 m/s, 90° | - | - |
| 1777966562 | 10° C | 77% | 1058 hPa | 0 mm | 2.68 m/s, 45° | - | - |
| 1777966495 | 10° C | 76% | 1058 hPa | 0 mm | 3.13 m/s, 45° | - | - |
* Rain latest hour (hover to see other rain measurements)
** Current wind speed in m/s (hover to see current wind gust speed)